Temp
-8 -8 -9 -9 -9 -9 -9 -9 -9 -9 -9 -9 -9 -9 -9 -9 -9 -10 -10 -10 -10 -10 -11 -11 -11 -12 -12 -12 -12 -12 -12 -12 -12 -12 -12 -12 -12 -12 -12 -12 -12 -12
-9 -9 -9 -9 -9 -9 -9 -9 -9 -9 -9 -9 -9 -9 -9 -9 -10 -10 -10 -10 -10 -11 -11 -11 -11 -12 -12 -12 -12 -12 -12 -13 -13 -13 -13 -13 -13 -13 -12 -12 -12 -12
-9 -9 -9 -9 -9 -9 -9 -9 -9 -9 -9 -9 -9 -9 -10 -10 -10 -10 -10 -10 -11 -11 -11 -11 -12 -12 -12 -12 -12 -12 -13 -13 -13 -13 -13 -13 -13 -13 -13 -13 -12 -12
-9 -9 -9 -9 -9 -10 -10 -10 -9 -9 -9 -9 -10 -10 -10 -10 -10 -10 -10 -10 -11 -11 -11 -12 -12 -12 -12 -12 -12 -13 -13 -13 -13 -13 -13 -13 -13 -13 -13 -13 -13 -13
-9 -9 -10 -10 -10 -10 -10 -10 -10 -9 -10 -10 -10 -10 -10 -10 -10 -10 -10 -11 -11 -11 -11 -12 -12 -12 -12 -12 -12 -13 -13 -13 -13 -13 -13 -13 -13 -13 -13 -13 -13 -13
-9 -10 -10 -10 -10 -10 -10 -10 -10 -10 -10 -10 -10 -10 -10 -10 -10 -10 -10 -11 -11 -11 -11 -12 -12 -12 -12 -12 -13 -13 -13 -13 -13 -13 -13 -13 -13 -13 -13 -13 -13 -13
-10 -10 -10 -10 -10 -10 -10 -10 -10 -10 -10 -10 -10 -10 -10 -10 -10 -10 -10 -11 -11 -11 -11 -12 -12 -12 -12 -12 -13 -13 -13 -13 -13 -13 -13 -13 -13 -13 -13 -13 -13 -13
-10 -10 -10 -10 -10 -10 -10 -10 -10 -10 -10 -10 -10 -10 -10 -10 -10 -10 -11 -11 -11 -11 -11 -12 -12 -12 -12 -12 -13 -13 -13 -13 -13 -13 -14 -14 -14 -14 -14 -14 -14 -14
-10 -10 -10 -10 -10 -10 -10 -10 -10 -10 -10 -10 -10 -10 -10 -11 -11 -11 -11 -11 -11 -11 -11 -11 -12 -12 -12 -12 -12 -13 -13 -13 -13 -13 -14 -14 -14 -14 -14 -14 -14 -14
-10 -10 -10 -10 -10 -10 -10 -10 -10 -10 -10 -11 -11 -11 -11 -11 -11 -11 -11 -11 -11 -11 -11 -11 -12 -12 -12 -12 -12 -12 -13 -13 -13 -13 -14 -14 -14 -14 -14 -14 -14 -14
-10 -10 -10 -10 -10 -10 -10 -10 -11 -11 -11 -11 -11 -11 -11 -11 -11 -11 -11 -11 -11 -11 -11 -11 -11 -12 -12 -12 -12 -12 -13 -13 -13 -14 -14 -14 -14 -14 -14 -14 -14 -14
-10 -10 -10 -10 -10 -10 -10 -11 -11 -11 -11 -11 -11 -11 -11 -11 -11 -11 -11 -11 -11 -11 -11 -12 -12 -12 -12 -12 -12 -12 -13 -13 -13 -13 -14 -14 -14 -14 -14 -14 -14 -14
-10 -10 -10 -10 -10 -10 -11 -11 -11 -11 -11 -11 -11 -11 -11 -11 -11 -11 -11 -12 -12 -12 -12 -12 -12 -12 -12 -12 -12 -12 -12 -13 -13 -13 -14 -14 -14 -14 -14 -14 -14 -14
-10 -10 -10 -10 -10 -11 -11 -11 -11 -11 -11 -11 -11 -11 -11 -11 -11 -11 -12 -12 -12 -12 -12 -12 -12 -12 -12 -12 -12 -12 -12 -13 -13 -13 -14 -14 -14 -14 -14 -14 -14 -14
-10 -10 -10 -11 -11 -11 -11 -11 -11 -11 -11 -11 -11 -11 -11 -11 -11 -12 -12 -12 -12 -12 -12 -12 -12 -12 -12 -12 -13 -13 -13 -13 -13 -13 -14 -14 -14 -14 -14 -14 -14 -14
-10 -10 -11 -11 -11 -11 -11 -11 -11 -11 -11 -11 -11 -11 -11 -12 -12 -12 -12 -12 -12 -12 -12 -12 -12 -12 -13 -13 -13 -13 -13 -13 -13 -13 -14 -14 -14 -14 -14 -14 -14 -14
-10 -10 -11 -11 -11 -11 -11 -11 -11 -11 -11 -11 -11 -11 -12 -12 -12 -12 -12 -12 -12 -12 -12 -12 -13 -13 -13 -13 -13 -13 -13 -13 -13 -13 -14 -14 -14 -14 -14 -14 -14 -14
-10 -11 -11 -11 -11 -11 -11 -11 -11 -11 -11 -11 -11 -12 -12 -12 -12 -12 -12 -12 -12 -13 -13 -13 -13 -13 -13 -13 -13 -13 -13 -13 -13 -13 -13 -14 -14 -14 -14 -14 -14 -14
-10 -11 -11 -11 -11 -11 -11 -11 -11 -11 -12 -12 -12 -12 -12 -12 -12 -12 -12 -12 -13 -13 -13 -13 -13 -13 -13 -13 -13 -14 -14 -14 -13 -13 -14 -14 -14 -14 -14 -14 -14 -14
-10 -11 -11 -11 -11 -11 -11 -11 -12 -12 -12 -12 -12 -12 -12 -12 -12 -12 -12 -13 -13 -13 -13 -13 -13 -13 -13 -13 -14 -14 -14 -14 -14 -14 -14 -14 -14 -14 -14 -14 -14 -15
-11 -11 -11 -11 -11 -11 -11 -12 -12 -12 -12 -12 -12 -12 -12 -12 -12 -13 -13 -13 -13 -13 -13 -13 -13 -13 -14 -14 -14 -14 -14 -14 -14 -14 -14 -14 -14 -14 -14 -14 -15 -15
-11 -11 -11 -11 -11 -11 -11 -12 -12 -12 -12 -12 -12 -12 -12 -12 -13 -13 -13 -13 -13 -13 -13 -13 -13 -14 -14 -14 -14 -14 -14 -14 -14 -14 -14 -14 -14 -14 -14 -14 -15 -15
-11 -11 -11 -11 -11 -11 -11 -12 -12 -12 -12 -12 -12 -12 -12 -13 -13 -13 -13 -13 -13 -13 -13 -13 -13 -14 -14 -14 -14 -14 -14 -14 -14 -14 -14 -14 -14 -14 -14 -14 -15 -15
-11 -11 -11 -11 -11 -11 -12 -12 -12 -12 -12 -12 -12 -12 -12 -13 -13 -13 -13 -13 -13 -13 -13 -13 -13 -14 -14 -14 -14 -14 -14 -14 -14 -14 -14 -14 -14 -14 -15 -15 -15 -15
-11 -11 -11 -11 -11 -11 -12 -12 -12 -12 -12 -12 -12 -12 -13 -13 -13 -13 -13 -13 -13 -13 -13 -13 -13 -14 -14 -14 -14 -14 -14 -14 -14 -14 -14 -14 -14 -15 -15 -15 -15 -15
-11 -11 -11 -11 -11 -12 -12 -12 -12 -12 -12 -12 -12 -13 -13 -13 -13 -13 -13 -13 -13 -13 -13 -13 -14 -14 -14 -14 -14 -14 -14 -14 -14 -14 -14 -15 -15 -15 -15 -15 -15 -15
Height
5870 5868 5867 5865 5863 5862 5860 5859 5858 5856 5855 5854 5853 5851 5849 5847 5845 5843 5841 5838 5836 5834 5831 5829 5827 5826 5824 5822 5820 5819 5817 5816 5814 5812 5811 5809 5807 5805 5803 5801 5800 5798
5868 5867 5865 5864 5862 5861 5859 5858 5857 5856 5854 5853 5852 5850 5848 5846 5844 5841 5839 5837 5835 5832 5830 5828 5826 5824 5822 5821 5819 5817 5816 5814 5812 5810 5808 5807 5805 5802 5801 5799 5797 5795
5866 5865 5864 5862 5861 5859 5858 5857 5856 5855 5854 5852 5851 5849 5847 5845 5842 5840 5838 5835 5833 5831 5829 5827 5825 5823 5821 5819 5817 5816 5814 5812 5810 5808 5806 5805 5802 5800 5798 5796 5794 5792
5865 5863 5862 5860 5859 5858 5857 5856 5855 5854 5853 5851 5850 5848 5845 5843 5841 5838 5836 5834 5832 5830 5828 5826 5823 5821 5820 5818 5816 5814 5812 5810 5809 5807 5805 5803 5800 5798 5796 5794 5792 5790
5863 5861 5860 5859 5858 5857 5856 5855 5854 5853 5852 5850 5849 5846 5844 5842 5839 5837 5835 5833 5830 5828 5826 5824 5822 5820 5818 5816 5814 5813 5811 5809 5807 5805 5803 5800 5798 5796 5794 5792 5789 5787
5861 5860 5859 5858 5857 5856 5855 5854 5853 5852 5851 5849 5847 5845 5843 5840 5838 5836 5834 5831 5829 5827 5824 5822 5820 5818 5816 5815 5813 5811 5809 5807 5805 5802 5800 5798 5796 5794 5791 5789 5787 5785
5860 5859 5858 5857 5856 5855 5854 5853 5852 5851 5849 5847 5846 5844 5841 5839 5837 5835 5832 5830 5828 5825 5823 5821 5819 5817 5815 5813 5811 5809 5807 5805 5803 5800 5798 5796 5794 5791 5789 5787 5784 5782
5858 5857 5857 5856 5855 5854 5853 5852 5851 5849 5848 5846 5844 5842 5840 5838 5835 5833 5831 5828 5826 5824 5822 5819 5817 5815 5813 5811 5809 5807 5805 5803 5801 5799 5796 5794 5791 5789 5787 5785 5782 5780
5857 5856 5856 5855 5854 5853 5852 5851 5849 5848 5846 5845 5843 5841 5839 5836 5834 5832 5829 5827 5825 5822 5820 5818 5816 5814 5811 5809 5807 5805 5803 5801 5799 5797 5794 5792 5789 5787 5785 5782 5780 5778
5856 5855 5854 5854 5853 5852 5850 5849 5848 5846 5845 5843 5841 5839 5837 5835 5833 5830 5828 5825 5823 5821 5819 5816 5814 5812 5810 5808 5805 5803 5801 5799 5797 5795 5792 5790 5787 5785 5783 5780 5778 5776
5855 5854 5853 5853 5852 5850 5849 5847 5846 5845 5843 5842 5840 5838 5836 5834 5831 5829 5826 5824 5822 5820 5817 5815 5813 5810 5808 5806 5804 5801 5799 5797 5795 5793 5790 5788 5786 5783 5781 5779 5776 5774
5854 5853 5852 5851 5850 5849 5847 5846 5844 5843 5842 5840 5838 5836 5834 5832 5830 5827 5825 5823 5820 5818 5816 5813 5811 5809 5806 5804 5802 5799 5797 5795 5793 5791 5788 5786 5784 5782 5779 5777 5774 5772
5853 5852 5851 5849 5848 5847 5846 5844 5843 5842 5840 5838 5836 5834 5832 5830 5828 5826 5824 5821 5819 5817 5815 5812 5809 5807 5805 5802 5800 5798 5795 5793 5791 5788 5786 5784 5782 5780 5777 5775 5772 5770
5851 5850 5849 5848 5847 5845 5844 5843 5841 5840 5838 5836 5834 5833 5831 5829 5826 5824 5822 5820 5818 5815 5813 5811 5808 5806 5803 5801 5798 5796 5794 5791 5789 5787 5784 5782 5780 5778 5776 5773 5771 5768
5849 5848 5847 5846 5845 5844 5843 5841 5840 5838 5836 5835 5833 5831 5829 5827 5825 5822 5820 5819 5816 5814 5812 5809 5807 5804 5802 5799 5797 5794 5792 5790 5787 5785 5783 5780 5778 5776 5774 5772 5769 5767
5847 5847 5846 5844 5843 5842 5841 5839 5838 5836 5835 5833 5831 5829 5827 5825 5823 5821 5819 5817 5814 5812 5810 5808 5805 5803 5800 5798 5795 5793 5790 5788 5786 5784 5781 5779 5776 5774 5772 5770 5767 5765
5845 5845 5844 5843 5841 5840 5839 5837 5836 5834 5833 5831 5830 5828 5825 5823 5821 5819 5817 5815 5812 5810 5808 5806 5804 5802 5799 5797 5794 5791 5789 5786 5784 5782 5780 5778 5775 5772 5770 5768 5766 5764
5843 5843 5842 5841 5839 5838 5837 5835 5834 5833 5831 5829 5828 5825 5823 5821 5819 5817 5815 5813 5811 5809 5807 5805 5803 5801 5798 5795 5793 5790 5787 5785 5783 5781 5779 5776 5774 5771 5769 5767 5764 5762
5842 5841 5840 5839 5837 5836 5835 5833 5832 5831 5829 5827 5825 5823 5821 5819 5817 5815 5813 5811 5809 5807 5806 5804 5802 5799 5797 5794 5792 5789 5786 5783 5781 5779 5777 5775 5772 5770 5767 5765 5763 5761
5840 5839 5838 5837 5835 5834 5833 5832 5830 5829 5827 5825 5823 5821 5819 5817 5815 5813 5811 5809 5807 5806 5804 5802 5800 5798 5795 5793 5791 5788 5785 5783 5780 5777 5776 5774 5771 5769 5766 5764 5761 5759
5838 5837 5836 5835 5833 5832 5831 5830 5828 5827 5825 5823 5821 5819 5817 5815 5813 5811 5809 5807 5806 5804 5802 5800 5799 5796 5794 5792 5789 5787 5785 5782 5779 5776 5774 5772 5769 5767 5765 5762 5760 5757
5836 5835 5834 5832 5831 5830 5829 5828 5826 5825 5823 5821 5819 5817 5815 5813 5811 5809 5807 5806 5804 5802 5801 5799 5797 5795 5793 5791 5788 5786 5784 5781 5778 5775 5772 5770 5768 5766 5763 5761 5758 5756
5834 5833 5832 5830 5829 5828 5827 5825 5824 5822 5821 5819 5817 5815 5813 5811 5809 5807 5806 5804 5803 5801 5799 5798 5796 5794 5791 5789 5787 5784 5782 5780 5777 5774 5771 5769 5767 5764 5762 5759 5757 5754
5831 5830 5829 5828 5827 5826 5824 5823 5822 5820 5819 5817 5815 5813 5811 5809 5808 5806 5804 5803 5801 5800 5798 5796 5794 5792 5790 5787 5785 5783 5780 5778 5776 5773 5770 5767 5765 5763 5760 5758 5755 5753
5829 5828 5827 5826 5825 5823 5822 5821 5819 5818 5816 5815 5813 5811 5809 5808 5806 5805 5803 5802 5800 5799 5797 5795 5793 5790 5788 5786 5783 5781 5779 5776 5774 5772 5770 5767 5764 5762 5759 5757 5754 5752
5826 5826 5825 5823 5822 5821 5820 5818 5817 5816 5814 5813 5811 5809 5808 5806 5805 5803 5802 5800 5799 5797 5795 5793 5791 5789 5786 5784 5782 5779 5777 5775 5772 5771 5769 5766 5763 5760 5758 5755 5753 5751
Wind_Speed
23 22 21 20 18 17 16 16 16 17 19 19 20 21 21 22 22 22 22 22 22 22 21 21 21 21 21 21 20 20 19 20 20 21 22 22 23 22 21 20 20 20
22 21 20 19 16 15 15 15 16 17 19 20 20 21 21 21 21 21 22 22 21 21 21 20 20 20 20 20 20 20 20 20 21 23 24 24 24 23 22 21 21 20
21 19 18 17 15 14 14 15 17 18 19 20 20 20 20 20 21 21 21 21 21 21 21 20 19 19 19 19 19 20 20 21 22 23 25 25 25 24 23 23 22 21
20 18 17 15 14 14 14 15 17 18 18 19 19 19 19 20 20 21 21 21 21 21 20 20 19 19 19 19 19 20 21 21 23 24 25 25 25 25 24 23 23 22
19 17 15 14 14 13 14 15 17 17 18 18 18 18 19 20 20 21 21 21 20 20 20 20 19 19 19 19 19 20 21 22 23 24 25 25 25 25 24 24 23 23
18 16 14 14 13 13 14 15 16 17 17 18 18 18 19 20 20 20 20 20 20 20 20 20 20 20 20 20 20 20 21 22 23 24 25 25 25 25 25 24 23 22
17 16 14 13 13 13 15 16 17 17 18 18 18 19 19 20 20 20 20 20 20 20 20 20 20 20 20 20 21 21 22 22 23 23 24 24 24 24 24 23 23 22
16 15 14 13 13 14 15 16 17 18 18 18 19 19 19 20 20 21 21 21 21 20 20 20 19 19 20 20 21 21 22 22 23 23 23 23 24 24 24 23 22 22
15 15 14 13 14 15 15 16 17 18 18 18 18 19 19 20 20 21 21 21 21 20 20 20 20 20 20 20 20 21 21 22 22 22 22 22 23 24 24 24 23 22
15 14 14 13 14 15 16 17 17 18 18 18 18 18 19 20 20 21 21 21 21 21 20 20 20 20 20 20 21 21 21 20 21 21 21 21 22 23 23 23 22 22
14 14 14 14 14 15 16 17 17 17 17 17 18 18 19 20 21 21 22 22 22 21 21 21 21 21 20 20 21 21 21 20 19 19 19 19 20 21 22 22 22 22
13 13 13 14 15 15 16 16 17 17 17 17 18 18 19 20 21 21 22 22 22 22 22 21 21 21 21 20 21 21 21 20 19 18 18 18 18 19 20 21 21 21
13 12 13 14 15 15 15 16 16 16 16 17 18 18 19 20 21 22 22 23 23 23 22 22 22 22 21 20 20 21 21 20 19 19 18 18 18 18 19 19 20 20
13 12 13 14 15 14 15 15 15 15 15 16 17 18 20 21 21 22 22 22 23 23 23 23 22 22 21 20 20 20 21 20 19 19 19 18 18 18 18 18 19 19
12 12 13 14 14 14 14 15 15 15 15 16 17 19 20 21 22 22 23 22 23 23 23 23 23 22 22 21 20 20 20 20 20 19 19 19 18 18 18 18 18 19
12 12 13 14 14 14 14 15 15 16 16 17 18 19 20 21 22 22 23 23 23 23 24 23 24 23 22 22 21 21 20 20 19 19 19 19 19 18 18 18 18 19
13 13 13 14 15 15 15 16 16 17 17 18 19 20 21 22 22 22 23 23 22 23 23 23 23 23 22 21 21 21 21 20 20 19 19 19 19 19 19 18 18 19
14 14 14 15 15 16 16 16 17 17 18 19 20 21 22 22 22 22 22 22 21 21 22 22 22 22 22 21 21 21 21 21 21 20 20 19 19 20 20 19 19 19
14 14 15 15 16 16 16 17 18 18 19 20 21 21 22 22 22 22 22 21 21 21 21 21 21 22 21 21 20 20 20 21 21 21 20 20 19 20 20 20 19 19
15 14 15 16 16 16 17 17 18 19 19 20 21 21 22 22 22 22 22 21 21 21 21 21 21 21 21 20 20 19 19 20 22 22 21 20 20 20 20 20 20 20
15 15 15 16 16 16 17 18 18 19 19 20 21 21 22 22 22 22 21 21 21 21 21 21 20 20 20 20 20 19 19 20 21 22 22 21 21 21 21 21 21 21
16 15 16 16 17 17 18 18 18 19 20 21 21 21 22 22 22 22 21 21 21 20 20 20 20 19 19 20 19 19 19 19 20 22 23 22 22 22 22 22 22 21
16 16 16 17 17 18 18 19 19 20 20 21 21 22 22 22 22 21 21 20 20 20 20 20 20 19 19 19 19 19 19 19 19 21 22 22 22 22 22 23 22 22
17 17 17 18 18 19 19 19 20 20 21 21 21 22 22 22 21 21 20 19 19 19 20 20 20 19 19 19 19 19 19 19 19 19 21 22 22 22 22 23 23 23
17 17 18 18 19 19 20 20 20 21 21 21 21 21 21 21 20 20 19 19 19 19 20 20 20 19 19 19 19 19 19 20 19 19 19 21 22 21 21 22 22 23
17 18 18 19 19 20 20 20 21 21 21 21 21 21 21 20 19 19 19 18 18 19 20 20 20 19 19 19 19 19 20 20 20 20 19 20 21 21 21 22 22 22
Wind_Direction
321 324 326 325 326 328 330 333 336 337 337 335 333 332 332 332 333 334 335 336 337 338 336 333 330 328 326 324 324 324 323 323 323 324 326 326 324 322 320 318 314 308
320 323 323 322 323 326 327 331 336 337 335 332 330 330 331 332 333 334 335 337 337 338 336 334 331 328 325 323 322 322 320 320 321 322 324 326 326 324 322 321 320 318
321 322 321 320 321 322 327 333 336 334 331 329 329 330 331 332 334 335 336 337 337 337 336 335 332 329 326 324 322 321 319 318 318 320 323 325 325 324 323 322 322 321
320 321 320 319 319 323 329 333 331 329 328 328 330 332 333 334 336 336 337 337 337 336 336 335 332 329 327 324 322 320 319 318 317 318 321 323 324 323 322 321 321 322
320 320 319 317 317 323 328 327 325 325 325 328 332 334 335 337 338 338 338 338 337 337 336 335 332 329 327 325 322 321 319 318 318 318 319 321 322 323 323 322 321 323
318 317 315 313 316 321 322 321 321 322 325 329 334 337 337 338 339 339 339 339 338 338 337 336 334 330 326 324 321 320 319 318 318 317 318 319 320 322 323 323 322 323
315 313 310 309 313 316 317 317 319 322 326 330 335 338 338 338 339 340 340 340 340 339 338 337 335 331 328 325 322 320 319 318 317 317 316 317 319 321 323 323 323 324
311 308 306 307 310 312 313 315 318 322 326 331 335 337 337 339 340 341 342 342 341 339 338 337 335 333 330 328 325 322 319 318 317 316 316 317 319 321 323 325 325 325
306 303 303 305 306 308 311 315 318 322 327 331 334 336 337 339 340 341 342 343 342 340 338 337 336 335 334 332 330 326 322 319 318 316 315 317 319 321 323 325 326 326
303 301 301 301 303 307 312 315 319 323 326 330 333 336 337 338 340 341 342 342 342 340 338 336 335 335 336 336 333 330 327 323 319 316 315 316 317 318 321 324 326 327
302 298 297 299 303 308 313 317 320 322 325 330 334 336 338 338 340 341 342 342 341 339 337 335 334 335 337 337 336 333 331 328 323 318 316 315 315 317 320 323 327 327
298 295 295 300 306 311 315 319 321 321 324 330 334 336 337 338 340 341 342 342 340 338 337 334 333 333 335 337 336 335 334 331 328 324 320 318 318 318 320 323 325 326
296 294 296 302 308 313 317 320 320 321 325 330 333 334 336 337 338 340 341 341 340 338 336 334 332 332 333 335 336 336 336 335 332 329 325 324 323 322 322 323 324 324
295 295 298 304 309 313 317 318 318 321 325 328 329 331 333 335 336 337 338 339 339 338 337 334 332 331 330 331 334 335 337 337 335 333 329 327 327 325 324 324 323 324
292 294 298 304 308 311 314 316 318 321 323 324 325 328 330 331 333 334 335 336 337 338 338 335 332 331 329 329 331 333 337 339 338 335 333 331 330 328 328 327 325 324
290 293 299 304 307 310 313 315 318 319 319 320 322 324 326 328 330 331 331 333 335 337 337 336 333 332 330 328 329 331 334 337 339 338 336 334 333 332 331 329 327 326
291 293 298 303 305 308 312 315 316 316 317 318 319 321 323 325 327 328 328 331 334 334 334 334 333 331 329 328 328 329 331 334 337 340 340 339 337 335 334 333 330 328
290 292 296 300 303 308 312 313 314 315 316 317 318 319 321 323 324 325 326 329 331 330 330 331 331 331 330 330 328 328 330 332 335 338 341 341 339 337 336 335 333 330
289 291 295 299 303 307 311 312 313 315 316 316 317 318 320 322 322 323 325 327 328 326 327 329 330 330 331 330 329 329 330 330 332 336 339 340 339 338 337 335 334 333
291 292 295 298 302 307 309 310 313 315 316 316 317 318 320 321 322 324 325 326 325 325 326 327 328 329 329 329 330 330 330 330 330 334 337 338 338 338 337 336 335 335
292 291 294 298 302 307 308 310 313 315 316 317 318 320 322 322 323 325 326 325 324 325 325 325 326 326 326 328 330 330 331 330 330 332 335 337 338 337 337 337 337 336
290 291 294 298 303 306 308 309 312 314 315 317 320 321 323 323 325 327 326 324 323 324 324 324 324 324 324 326 328 329 330 331 331 331 333 336 337 336 337 337 337 336
291 292 295 298 302 305 307 309 310 312 314 317 320 322 323 325 326 327 326 324 323 324 325 325 324 323 323 324 326 328 329 331 332 331 332 334 336 336 336 337 336 337
293 294 296 298 302 304 305 307 309 311 313 316 318 321 323 325 326 327 326 323 323 324 326 327 326 325 324 324 325 328 329 330 331 331 331 332 334 335 336 336 336 337
294 296 297 298 301 302 304 307 308 310 312 314 317 320 323 324 325 326 325 323 324 326 329 330 330 328 326 326 327 328 330 330 331 332 331 331 333 334 335 336 336 336
297 298 298 299 301 303 304 306 308 310 311 312 316 320 322 324 325 326 325 325 325 328 331 332 332 330 329 329 329 330 331 331 331 332 333 333 333 334 335 336 336 336